Location: Boitzum
(52.1496°N, 9.6943°E)
Time: 00:44:35
(UTC+00:00)

Cosmos 2297 Rocket - Pass Details

Date: 13 January 2026
Orbit: 838 x 843 km, 71.0° (Epoch: 17 February)

Event Time Altitude Azimuth Distance (km) Brightness Sun altitude
Exits shadow 05:47:26 - 336° (NNW) 2,730 4.5 -14.2°
Reaches altitude 10° 05:48:55 10° 348° (NNW) 2,476 4.4 -14.0°
Maximum altitude 05:51:07 12° 11° (NNE) 2,322 4.4 -13.7°
Drops below altitude 10° 05:53:19 10° 35° (NE) 2,475 4.8 -13.3°
Sets 05:57:34 0° 65° (ENE) 3,408 6.1 -12.7°
